Location: *
(55.5817°S, 142.4781°W)
Time: 07:07:01
(UTC+00:00)

Meteor 2-10 Rocket - Pass Details

Date: 29 April 2025
Orbit: 733 x 881 km, 81.2° (Epoch: 23 May)

Event Time Altitude Azimuth Distance (km) Brightness Sun altitude
Exits shadow 14:59:13 10° 316° (NW) 2,582 5.8 -16.0°
Reaches altitude 10° 14:59:17 10° 316° (NW) 2,556 5.8 -16.0°
Maximum altitude 15:04:49 43° 245° (WSW) 1,238 4.1 -15.2°
Drops below altitude 10° 15:10:19 10° 174° (S) 2,533 6.2 -14.4°
Sets 15:12:53 0° 167° (SSE) 3,455 7.0 -14.1°
